Regional Weather Roundup
Issued by NWS

Home | Current Version | Previous Version | Graphics & Text | Print | Product List | Glossary On
Versions: 1 2 3 4 5 6 7 8 9 10 11 12 13 14 15 16 17 18 19 20 21 22 23 24 25 26 27 28 29 30 31 32 33 34 35 36 37 38 39 40 41 42 43 44 45 46 47 48 49 50
000
ASUS43 KFSD 290910
RWRSD

WEATHER ROUNDUP FOR SOUTH DAKOTA
NATIONAL WEATHER SERVICE SIOUX FALLS SD
400 AM CDT SUN MAR 29 2015

NOTE: "FAIR" INDICATES FEW OR NO CLOUDS BELOW 12,000 FEET WITH NO
SIGNIFICANT WEATHER AND/OR OBSTRUCTIONS TO VISIBILITY.


SDZ001>005-009-010-012>017-291000-
NORTHWEST AND NORTH CENTRAL SOUTH DAKOTA

CITY           SKY/WX    TMP DP  RH WIND       PRES   REMARKS
BUFFALO          N/A     42  37  82 NW43G60   29.84R
FAITH            N/A     43  33  68 NW44G61   29.81R
MOBRIDGE       CLOUDY    48  37  65 W20G26    29.66S
$$

SDZ012>016-024>037-041>051-057-063-072>074-291000-
SOUTHWEST AND SOUTH CENTRAL SOUTH DAKOTA

CITY           SKY/WX    TMP DP  RH WIND       PRES   REMARKS
RAPID CTY ARPT MOCLDY    49  31  49 NW44G54   29.91R
PIERRE         CLEAR     47  35  63 W14       29.76R
CUSTER         PTCLDY    40  23  50 NW15G31   29.98R
ELLSWORTH AFB  PTCLDY    47  32  56 NW46G58   29.91
PHILIP         CLEAR     51  27  39 W33G43    29.86R
PINE RIDGE     CLEAR     49  16  26 W13       29.97R
SPEARFISH      MIX PCPN  41  32  70 NW35G44   30.05R
WINNER         FAIR      46  32  58 W10       29.83R
$$

SDZ004>011-016>023-039-040-291000-
NORTHEAST SOUTH DAKOTA

CITY           SKY/WX    TMP DP  RH WIND       PRES   REMARKS
ABERDEEN       CLEAR     40  37  89 W10       29.61F
WATERTOWN      CLOUDY    44  34  67 SW15      29.62R
SISSETON         N/A     47  37  68 W22G33    29.54S
$$

SDZ017-020-022-023-036>040-048>070-291000-
SOUTHEAST SOUTH DAKOTA

CITY           SKY/WX    TMP DP  RH WIND       PRES   REMARKS
SIOUX FALLS    PTCLDY    43  33  68 S16G23    29.67F
HURON          CLEAR     43  39  86 W9        29.68S
CHAMBERLAIN    CLEAR     47  36  67 W9        29.77F
MITCHELL       PTCLDY    49  41  74 W9        29.71R
YANKTON        PTCLDY    54  39  58 W15       29.74R
$$

ABBREVIATIONS USED IN REMARKS
   TC - TEMPERATURE IN CELSIUS
  WCI - WIND CHILL INDEX
   HX - HEAT INDEX
  VSB - VISIBILITY



USA.gov is the U.S. government's official web portal to all federal, state and local government web resources and services.